Time,TemperatureF,DewpointF,PressureIn,WindDirection,WindDirectionDegrees,WindSpeedMPH,WindSpeedGustMPH,Humidity,HourlyPrecipIn,Conditions,Clouds,dailyrainin,SoftwareType,DateUTC
2013-06-16 00:01:00,76.0,25.0,-100.00,NW,315,4.0,19.0,14,-99.99,,,-99.99,,2013-06-16 00:01:00,
2013-06-16 00:11:00,74.0,23.0,-100.00,NNW,335,12.0,18.0,14,-99.99,,,-99.99,,2013-06-16 00:11:00,
2013-06-16 00:22:00,73.0,22.0,-100.00,NW,325,11.0,18.0,14,-99.99,,,-99.99,,2013-06-16 00:22:00,
2013-06-16 00:33:00,73.0,23.0,-100.00,North,355,7.0,9.0,15,-99.99,,,-99.99,,2013-06-16 00:33:00,
2013-06-16 00:43:00,72.0,23.0,-100.00,North,0,8.0,12.0,15,-99.99,,,-99.99,,2013-06-16 00:43:00,
2013-06-16 00:52:00,74.0,24.0,-100.00,NW,325,11.0,21.0,15,-99.99,,,-99.99,,2013-06-16 00:52:00,
2013-06-16 01:01:00,75.0,24.0,-100.00,WSW,250,7.0,24.0,14,-99.99,,,-99.99,,2013-06-16 01:01:00,
2013-06-16 01:11:00,74.0,23.0,-100.00,West,265,12.0,14.0,14,-99.99,,,-99.99,,2013-06-16 01:11:00,
2013-06-16 01:22:00,74.0,22.0,-100.00,SW,230,6.0,16.0,14,-99.99,,,-99.99,,2013-06-16 01:22:00,
2013-06-16 01:33:00,74.0,23.0,-100.00,WSW,250,7.0,13.0,14,-99.99,,,-99.99,,2013-06-16 01:33:00,
2013-06-16 01:42:00,74.0,23.0,-100.00,West,280,11.0,16.0,14,-99.99,,,-99.99,,2013-06-16 01:42:00,
2013-06-16 01:53:00,73.0,22.0,-100.00,SE,145,9.0,14.0,14,-99.99,,,-99.99,,2013-06-16 01:53:00,
2013-06-16 02:01:00,74.0,23.0,-100.00,WNW,285,8.0,14.0,14,-99.99,,,-99.99,,2013-06-16 02:01:00,
2013-06-16 02:12:00,72.0,22.0,-100.00,NNW,345,4.0,9.0,15,-99.99,,,-99.99,,2013-06-16 02:12:00,
2013-06-16 02:22:00,72.0,22.0,-100.00,NW,305,4.0,7.0,15,-99.99,,,-99.99,,2013-06-16 02:22:00,
2013-06-16 02:33:00,71.0,23.0,-100.00,SW,215,4.0,7.0,16,-99.99,,,-99.99,,2013-06-16 02:33:00,
2013-06-16 02:43:00,71.0,22.0,-100.00,WSW,245,4.0,7.0,15,-99.99,,,-99.99,,2013-06-16 02:43:00,
2013-06-16 02:53:00,70.0,22.0,-100.00,NW,320,2.0,5.0,16,-99.99,,,-99.99,,2013-06-16 02:53:00,
2013-06-16 03:02:00,70.0,22.0,-100.00,North,0,4.0,4.0,16,-99.99,,,-99.99,,2013-06-16 03:02:00,
2013-06-16 03:11:00,69.0,21.0,-100.00,NE,40,2.0,4.0,16,-99.99,,,-99.99,,2013-06-16 03:11:00,
2013-06-16 03:22:00,69.0,21.0,-100.00,ENE,75,2.0,3.0,16,-99.99,,,-99.99,,2013-06-16 03:22:00,
2013-06-16 03:33:00,69.0,21.0,-100.00,NE,55,1.0,3.0,16,-99.99,,,-99.99,,2013-06-16 03:33:00,
2013-06-16 03:43:00,68.0,20.0,-100.00,ENE,70,1.0,1.0,16,-99.99,,,-99.99,,2013-06-16 03:43:00,
2013-06-16 03:53:00,63.0,18.0,-100.00,East,80,1.0,4.0,17,-99.99,,,-99.99,,2013-06-16 03:53:00,
2013-06-16 04:01:00,62.0,18.0,-100.00,ENE,75,1.0,4.0,18,-99.99,,,-99.99,,2013-06-16 04:01:00,
2013-06-16 04:12:00,66.0,20.0,-100.00,North,0,0.0,3.0,17,-99.99,,,-99.99,,2013-06-16 04:12:00,
2013-06-16 04:23:00,65.0,20.0,-100.00,WNW,285,1.0,2.0,17,-99.99,,,-99.99,,2013-06-16 04:23:00,
2013-06-16 04:33:00,64.0,20.0,-100.00,WNW,300,0.0,1.0,18,-99.99,,,-99.99,,2013-06-16 04:33:00,
2013-06-16 04:42:00,65.0,20.0,-100.00,NW,310,0.0,1.0,18,-99.99,,,-99.99,,2013-06-16 04:42:00,
2013-06-16 04:53:00,64.0,20.0,-100.00,East,95,3.0,6.0,18,-99.99,,,-99.99,,2013-06-16 04:53:00,
2013-06-16 05:01:00,63.0,20.0,-100.00,East,100,4.0,5.0,18,-99.99,,,-99.99,,2013-06-16 05:01:00,
2013-06-16 05:11:00,63.0,19.0,-100.00,East,95,3.0,4.0,18,-99.99,,,-99.99,,2013-06-16 05:11:00,
2013-06-16 05:22:00,61.0,18.0,-100.00,East,100,4.0,5.0,18,-99.99,,,-99.99,,2013-06-16 05:22:00,
2013-06-16 05:33:00,61.0,18.0,-100.00,East,100,2.0,4.0,18,-99.99,,,-99.99,,2013-06-16 05:33:00,
2013-06-16 05:43:00,62.0,19.0,-100.00,ENE,70,1.0,2.0,18,-99.99,,,-99.99,,2013-06-16 05:43:00,
2013-06-16 05:52:00,64.0,21.0,-100.00,SSW,205,4.0,5.0,18,-99.99,,,-99.99,,2013-06-16 05:52:00,
2013-06-16 06:01:00,64.0,20.0,-100.00,SSE,165,3.0,4.0,18,-99.99,,,-99.99,,2013-06-16 06:01:00,
2013-06-16 06:11:00,62.0,20.0,-100.00,SSW,210,3.0,4.0,19,-99.99,,,-99.99,,2013-06-16 06:11:00,
2013-06-16 06:22:00,63.0,20.0,-100.00,WNW,295,1.0,4.0,18,-99.99,,,-99.99,,2013-06-16 06:22:00,
2013-06-16 06:33:00,63.0,20.0,-100.00,West,270,1.0,4.0,19,-99.99,,,-99.99,,2013-06-16 06:33:00,
2013-06-16 06:43:00,63.0,20.0,-100.00,NW,310,1.0,7.0,18,-99.99,,,-99.99,,2013-06-16 06:43:00,
2013-06-16 06:52:00,62.0,19.0,-100.00,NW,315,4.0,5.0,19,-99.99,,,-99.99,,2013-06-16 06:52:00,
2013-06-16 07:01:00,61.0,19.0,-100.00,NW,310,2.0,5.0,19,-99.99,,,-99.99,,2013-06-16 07:01:00,
2013-06-16 07:11:00,61.0,19.0,-100.00,NNW,340,2.0,3.0,19,-99.99,,,-99.99,,2013-06-16 07:11:00,
2013-06-16 07:22:00,57.0,18.0,-100.00,NNW,335,4.0,4.0,21,-99.99,,,-99.99,,2013-06-16 07:22:00,
2013-06-16 07:32:00,59.0,19.0,-100.00,NW,315,3.0,4.0,21,-99.99,,,-99.99,,2013-06-16 07:32:00,
2013-06-16 07:43:00,60.0,20.0,-100.00,NNW,340,4.0,4.0,20,-99.99,,,-99.99,,2013-06-16 07:43:00,
2013-06-16 07:53:00,61.0,20.0,-100.00,NNW,330,4.0,4.0,20,-99.99,,,-99.99,,2013-06-16 07:53:00,
2013-06-16 08:02:00,60.0,19.0,-100.00,NW,310,4.0,4.0,20,-99.99,,,-99.99,,2013-06-16 08:02:00,
2013-06-16 08:11:00,59.0,19.0,-100.00,WNW,300,3.0,4.0,20,-99.99,,,-99.99,,2013-06-16 08:11:00,
2013-06-16 08:22:00,59.0,19.0,-100.00,WNW,300,3.0,4.0,21,-99.99,,,-99.99,,2013-06-16 08:22:00,
2013-06-16 08:33:00,59.0,19.0,-100.00,WNW,295,3.0,4.0,21,-99.99,,,-99.99,,2013-06-16 08:33:00,
2013-06-16 08:43:00,58.0,19.0,-100.00,WNW,300,3.0,4.0,21,-99.99,,,-99.99,,2013-06-16 08:43:00,
2013-06-16 08:54:00,58.0,19.0,-100.00,NW,305,6.0,6.0,21,-99.99,,,-99.99,,2013-06-16 08:54:00,
2013-06-16 09:01:00,58.0,19.0,-100.00,WNW,300,4.0,6.0,21,-99.99,,,-99.99,,2013-06-16 09:01:00,
2013-06-16 09:11:00,57.0,18.0,-100.00,WNW,300,4.0,7.0,21,-99.99,,,-99.99,,2013-06-16 09:11:00,
2013-06-16 09:22:00,57.0,18.0,-100.00,WNW,285,4.0,7.0,21,-99.99,,,-99.99,,2013-06-16 09:22:00,
2013-06-16 09:33:00,57.0,18.0,-100.00,WNW,290,4.0,7.0,21,-99.99,,,-99.99,,2013-06-16 09:33:00,
2013-06-16 09:42:00,56.0,18.0,-100.00,West,270,2.0,7.0,21,-99.99,,,-99.99,,2013-06-16 09:42:00,
2013-06-16 09:52:00,56.0,18.0,-100.00,WNW,285,5.0,6.0,21,-99.99,,,-99.99,,2013-06-16 09:52:00,
2013-06-16 10:01:00,57.0,18.0,-100.00,NW,305,4.0,6.0,21,-99.99,,,-99.99,,2013-06-16 10:01:00,
2013-06-16 10:12:00,57.0,18.0,-100.00,WNW,295,6.0,7.0,21,-99.99,,,-99.99,,2013-06-16 10:12:00,
2013-06-16 10:22:00,56.0,17.0,-100.00,NW,305,6.0,7.0,21,-99.99,,,-99.99,,2013-06-16 10:22:00,
2013-06-16 10:43:00,55.0,17.0,-100.00,NW,305,6.0,6.0,21,-99.99,,,-99.99,,2013-06-16 10:43:00,
2013-06-16 10:53:00,55.0,17.0,-100.00,NW,310,5.0,6.0,21,-99.99,,,-99.99,,2013-06-16 10:53:00,
2013-06-16 11:02:00,55.0,17.0,-100.00,NW,305,4.0,6.0,21,-99.99,,,-99.99,,2013-06-16 11:02:00,
2013-06-16 11:11:00,55.0,17.0,-100.00,NW,315,4.0,5.0,21,-99.99,,,-99.99,,2013-06-16 11:11:00,
2013-06-16 11:22:00,56.0,18.0,-100.00,NNW,340,6.0,6.0,21,-99.99,,,-99.99,,2013-06-16 11:22:00,
2013-06-16 11:33:00,59.0,19.0,-100.00,NNW,340,7.0,8.0,21,-99.99,,,-99.99,,2013-06-16 11:33:00,
2013-06-16 11:52:00,58.0,19.0,-100.00,North,355,7.0,9.0,21,-99.99,,,-99.99,,2013-06-16 11:52:00,
2013-06-16 12:02:00,59.0,19.0,-100.00,North,350,7.0,8.0,21,-99.99,,,-99.99,,2013-06-16 12:02:00,
2013-06-16 12:22:00,59.0,19.0,-100.00,North,5,4.0,7.0,20,-99.99,,,-99.99,,2013-06-16 12:22:00,
2013-06-16 12:42:00,49.0,14.0,-100.00,SSE,150,7.0,8.0,23,-99.99,,,-99.99,,2013-06-16 12:42:00,
2013-06-16 12:53:00,51.0,16.0,-100.00,SE,145,2.0,6.0,24,-99.99,,,-99.99,,2013-06-16 12:53:00,
2013-06-16 13:01:00,53.0,17.0,-100.00,South,175,4.0,4.0,23,-99.99,,,-99.99,,2013-06-16 13:01:00,
2013-06-16 13:11:00,56.0,19.0,-100.00,NNW,330,1.0,4.0,23,-99.99,,,-99.99,,2013-06-16 13:11:00,
2013-06-16 13:22:00,60.0,21.0,-100.00,NNW,335,6.0,7.0,21,-99.99,,,-99.99,,2013-06-16 13:22:00,
2013-06-16 13:34:00,61.0,21.0,-100.00,NNW,335,6.0,7.0,21,-99.99,,,-99.99,,2013-06-16 13:34:00,
2013-06-16 13:53:00,63.0,22.0,-100.00,NW,325,4.0,6.0,20,-99.99,,,-99.99,,2013-06-16 13:53:00,
2013-06-16 14:22:00,68.0,24.0,-100.00,NW,320,4.0,5.0,18,-99.99,,,-99.99,,2013-06-16 14:22:00,
2013-06-16 14:34:00,68.0,24.0,-100.00,NW,325,4.0,4.0,18,-99.99,,,-99.99,,2013-06-16 14:34:00,
2013-06-16 14:52:00,67.0,24.0,-100.00,NNW,335,1.0,4.0,19,-99.99,,,-99.99,,2013-06-16 14:52:00,
2013-06-16 15:02:00,69.0,25.0,-100.00,NW,305,2.0,6.0,18,-99.99,,,-99.99,,2013-06-16 15:02:00,
2013-06-16 15:12:00,71.0,25.0,-100.00,West,270,0.0,4.0,18,-99.99,,,-99.99,,2013-06-16 15:12:00,
2013-06-16 15:23:00,70.0,24.0,-100.00,WNW,295,3.0,5.0,18,-99.99,,,-99.99,,2013-06-16 15:23:00,
2013-06-16 15:33:00,68.0,24.0,-100.00,NNW,340,6.0,7.0,18,-99.99,,,-99.99,,2013-06-16 15:33:00,
2013-06-16 15:43:00,68.0,24.0,-100.00,WNW,295,4.0,7.0,18,-99.99,,,-99.99,,2013-06-16 15:43:00,
2013-06-16 15:52:00,70.0,25.0,-100.00,NW,305,1.0,7.0,18,-99.99,,,-99.99,,2013-06-16 15:52:00,
2013-06-16 16:01:00,71.0,26.0,-100.00,WNW,295,3.0,7.0,18,-99.99,,,-99.99,,2013-06-16 16:01:00,
2013-06-16 16:12:00,71.0,25.0,-100.00,NNW,330,4.0,6.0,18,-99.99,,,-99.99,,2013-06-16 16:12:00,
2013-06-16 16:22:00,71.0,25.0,-100.00,North,355,1.0,6.0,17,-99.99,,,-99.99,,2013-06-16 16:22:00,
2013-06-16 16:33:00,73.0,26.0,-100.00,NNW,330,4.0,6.0,17,-99.99,,,-99.99,,2013-06-16 16:33:00,
2013-06-16 16:43:00,73.0,26.0,-100.00,NW,305,2.0,6.0,17,-99.99,,,-99.99,,2013-06-16 16:43:00,
2013-06-16 16:53:00,74.0,26.0,-100.00,WSW,255,6.0,9.0,16,-99.99,,,-99.99,,2013-06-16 16:53:00,
2013-06-16 17:02:00,73.0,26.0,-100.00,SW,215,3.0,9.0,16,-99.99,,,-99.99,,2013-06-16 17:02:00,
2013-06-16 17:11:00,74.0,26.0,-100.00,NNW,345,7.0,11.0,16,-99.99,,,-99.99,,2013-06-16 17:11:00,
2013-06-16 17:22:00,74.0,25.0,-100.00,NNW,330,5.0,8.0,16,-99.99,,,-99.99,,2013-06-16 17:22:00,
2013-06-16 17:34:00,73.0,24.0,-100.00,North,0,7.0,12.0,16,-99.99,,,-99.99,,2013-06-16 17:34:00,
2013-06-16 17:43:00,76.0,26.0,-100.00,North,350,2.0,8.0,15,-99.99,,,-99.99,,2013-06-16 17:43:00,
2013-06-16 18:02:00,73.0,23.0,-100.00,North,5,7.0,12.0,15,-99.99,,,-99.99,,2013-06-16 18:02:00,
2013-06-16 18:12:00,76.0,26.0,-100.00,SSE,155,2.0,7.0,15,-99.99,,,-99.99,,2013-06-16 18:12:00,
2013-06-16 18:22:00,77.0,26.0,-100.00,East,100,7.0,13.0,14,-99.99,,,-99.99,,2013-06-16 18:22:00,
2013-06-16 18:33:00,77.0,26.0,-100.00,NE,45,2.0,11.0,14,-99.99,,,-99.99,,2013-06-16 18:33:00,
2013-06-16 18:43:00,77.0,25.0,-100.00,SE,140,7.0,12.0,14,-99.99,,,-99.99,,2013-06-16 18:43:00,
2013-06-16 18:52:00,78.0,25.0,-100.00,SSW,210,3.0,9.0,14,-99.99,,,-99.99,,2013-06-16 18:52:00,
2013-06-16 19:01:00,80.0,26.0,-100.00,WSW,255,4.0,9.0,14,-99.99,,,-99.99,,2013-06-16 19:01:00,
2013-06-16 19:11:00,78.0,24.0,-100.00,East,100,9.0,17.0,13,-99.99,,,-99.99,,2013-06-16 19:11:00,
2013-06-16 19:22:00,77.0,23.0,-100.00,NE,40,5.0,14.0,13,-99.99,,,-99.99,,2013-06-16 19:22:00,
2013-06-16 19:33:00,80.0,26.0,-100.00,SW,235,6.0,7.0,13,-99.99,,,-99.99,,2013-06-16 19:33:00,
2013-06-16 19:43:00,80.0,25.0,-100.00,NW,305,4.0,8.0,13,-99.99,,,-99.99,,2013-06-16 19:43:00,
2013-06-16 19:53:00,80.0,23.0,-100.00,East,100,4.0,12.0,12,-99.99,,,-99.99,,2013-06-16 19:53:00,
2013-06-16 20:02:00,79.0,22.0,-100.00,West,260,16.0,21.0,12,-99.99,,,-99.99,,2013-06-16 20:02:00,
2013-06-16 20:11:00,80.0,23.0,-100.00,WNW,295,11.0,18.0,12,-99.99,,,-99.99,,2013-06-16 20:11:00,
2013-06-16 20:22:00,83.0,24.0,-100.00,NW,320,4.0,17.0,11,-99.99,,,-99.99,,2013-06-16 20:22:00,
2013-06-16 20:33:00,81.0,23.0,-100.00,NW,320,4.0,9.0,11,-99.99,,,-99.99,,2013-06-16 20:33:00,
2013-06-16 20:42:00,81.0,22.0,-100.00,SSW,205,7.0,22.0,11,-99.99,,,-99.99,,2013-06-16 20:42:00,
2013-06-16 20:53:00,79.0,22.0,-100.00,SSW,195,11.0,16.0,12,-99.99,,,-99.99,,2013-06-16 20:53:00,
2013-06-16 21:01:00,79.0,22.0,-100.00,West,265,11.0,26.0,12,-99.99,,,-99.99,,2013-06-16 21:01:00,
2013-06-16 21:11:00,80.0,23.0,-100.00,South,170,7.0,16.0,12,-99.99,,,-99.99,,2013-06-16 21:11:00,
2013-06-16 21:22:00,82.0,23.0,-100.00,SE,145,4.0,12.0,11,-99.99,,,-99.99,,2013-06-16 21:22:00,
2013-06-16 21:32:00,81.0,23.0,-100.00,WNW,285,4.0,9.0,11,-99.99,,,-99.99,,2013-06-16 21:32:00,
2013-06-16 21:42:00,81.0,21.0,-100.00,West,280,8.0,14.0,10,-99.99,,,-99.99,,2013-06-16 21:42:00,
2013-06-16 21:53:00,79.0,20.0,-100.00,SSW,210,9.0,21.0,10,-99.99,,,-99.99,,2013-06-16 21:53:00,
2013-06-16 22:01:00,78.0,19.0,-100.00,WSW,250,7.0,12.0,10,-99.99,,,-99.99,,2013-06-16 22:01:00,
2013-06-16 22:12:00,81.0,22.0,-100.00,NW,315,7.0,16.0,10,-99.99,,,-99.99,,2013-06-16 22:12:00,
2013-06-16 22:22:00,83.0,23.0,-100.00,East,90,1.0,19.0,10,-99.99,,,-99.99,,2013-06-16 22:22:00,
2013-06-16 22:32:00,81.0,21.0,-100.00,WSW,255,17.0,22.0,10,-99.99,,,-99.99,,2013-06-16 22:32:00,
2013-06-16 22:42:00,78.0,19.0,-100.00,WSW,240,12.0,20.0,10,-99.99,,,-99.99,,2013-06-16 22:42:00,
2013-06-16 22:52:00,78.0,19.0,-100.00,SW,225,8.0,12.0,10,-99.99,,,-99.99,,2013-06-16 22:52:00,
2013-06-16 23:01:00,82.0,23.0,-100.00,SW,215,8.0,13.0,11,-99.99,,,-99.99,,2013-06-16 23:01:00,
2013-06-16 23:11:00,82.0,22.0,-100.00,West,270,15.0,22.0,10,-99.99,,,-99.99,,2013-06-16 23:11:00,
2013-06-16 23:22:00,83.0,23.0,-100.00,NW,315,12.0,20.0,10,-99.99,,,-99.99,,2013-06-16 23:22:00,
2013-06-16 23:32:00,83.0,23.0,-100.00,WNW,290,17.0,22.0,10,-99.99,,,-99.99,,2013-06-16 23:32:00,
2013-06-16 23:42:00,82.0,21.0,-100.00,WNW,300,12.0,27.0,10,-99.99,,,-99.99,,2013-06-16 23:42:00,
2013-06-16 23:51:00,82.0,20.0,-100.00,WSW,255,12.0,18.0,10,-99.99,,,-99.99,,2013-06-16 23:51:00,